Location: Unspecified
(56.5167°N, 0.0000°E)
Time: 00:49:26
(UTC+02:00)

Cosmos 1674 - Visible Passes

Search period start: 26 October 2014 00:00
Search period end: 04 November 2014 23:00
Orbit: 514 x 540 km, 82.5° (Epoch: 24 October)

Date Brightness Start Highest point End Pass type
(mag) Time Alt. Az. Time Alt. Az. Time Alt. Az.
26 Oct 4.9 05:18:09 10° SSE 05:21:34 28° E 05:25:00 10° NNE visible
26 Oct 3.3 06:53:41 10° SW 06:57:25 38° WNW 07:01:11 10° N visible
26 Oct 6.2 18:19:41 10° WNW 18:21:10 12° W 18:22:38 10° WSW visible
27 Oct 5.0 05:06:51 10° SSE 05:10:11 26° E 05:13:32 10° NNE visible
27 Oct 3.2 06:42:13 10° SW 06:45:59 41° WNW 06:49:48 10° N visible
27 Oct 6.1 18:08:01 10° NW 18:09:47 13° W 18:11:32 10° WSW visible
28 Oct 5.1 04:55:32 10° SE 04:58:47 25° E 05:02:03 10° NNE visible
28 Oct 3.1 06:30:44 10° SW 06:34:32 44° WNW 06:38:23 10° N visible
29 Oct 5.2 04:44:13 10° SE 04:47:22 23° E 04:50:32 10° NE visible
29 Oct 3.0 06:19:14 10° SSW 06:23:05 48° WNW 06:26:57 10° N visible
30 Oct 5.2 04:32:56 10° SE 04:35:56 22° E 04:39:00 10° NE visible
30 Oct 2.9 06:08:17 14° SSW 06:11:36 52° WNW 06:15:30 10° N visible
31 Oct 5.3 04:23:03 17° ESE 04:24:30 20° E 04:27:26 10° NE visible
31 Oct 2.8 05:58:22 30° SW 06:00:07 56° WNW 06:04:02 10° N visible
01 Nov 5.3 04:12:47 19° E 04:13:02 19° E 04:15:51 10° NE visible
01 Nov 2.7 05:48:05 54° WSW 05:48:36 60° WNW 05:52:33 10° N visible
01 Nov 4.8 07:24:21 10° WNW 07:25:27 11° NW 07:26:34 10° NW visible
02 Nov 5.6 04:02:15 17° ENE 04:02:15 17° ENE 04:04:14 10° NE visible
02 Nov 2.9 05:37:33 59° NW 05:37:33 59° NW 05:41:03 10° N visible
02 Nov 4.7 07:12:50 11° WNW 07:13:53 12° NW 07:15:20 10° NNW visible
03 Nov 5.9 03:51:33 14° ENE 03:51:33 14° ENE 03:52:35 10° NE visible
03 Nov 3.6 05:26:50 41° N 05:26:50 41° N 05:29:32 10° N visible
03 Nov 4.7 07:02:07 12° WNW 07:02:18 12° NW 07:04:00 10° NNW visible
04 Nov 6.1 03:40:43 11° NE 03:40:43 11° NE 03:40:54 10° NE visible
04 Nov 4.3 05:16:00 28° N 05:16:00 28° N 05:17:59 10° N visible
04 Nov 4.7 06:51:16 13° NW 06:51:16 13° NW 06:52:37 10° NNW visible
